Concordia, KS

7:21 AM CST on December 14, 2019 (GMT -0600)
Blosser Municipal

Weather History for KCNK - July, 2019

Change the Weather History Date:

Monday, July 22, 2019

  Actual Average Record
Temperature  
Mean Temperature 74 °F 79 °F  
Max Temperature 83 °F 91 °F 107 °F (2001)
Min Temperature 64 °F 68 °F 54 °F (1970)
Degree Days  
Heating Degree Days 0 0  
Month to date heating degree days 0 0  
Since 1 June heating degree days 0 13  
Since 1 July heating degree days 0 0  
Cooling Degree Days 9 14  
Month to date cooling degree days 360 304  
Year to date cooling degree days 781 658  
Since 1 June cooling degree days 681 569  
Growing Degree Days 23 (Base 50)    
Moisture  
Dew Point 59 °F    
Average Humidity 64    
Maximum Humidity 87    
Minimum Humidity 40    
Precipitation  
Precipitation 0.00 in 0.11 in 1.60 in (1992)
Month to date precipitation 3.16 2.94  
Year to date precipitation 22.23 16.98  
Snow  
Snow 0.00 in 0.00 in T in (1951)
Month to date snowfall 0.0 0.0  
Year to date snowfall 32.3 13.7  
Since 1 July snowfall 0.0 0.0  
Snow Depth 0.00 in    
Sea Level Pressure  
Sea Level Pressure 30.19 in    
Wind  
Wind Speed 10 mph (NNE)    
Max Wind Speed 18 mph    
Max Gust Speed 26 mph    
Visibility 10 miles    
Events      
T = Trace of Precipitation, MM = Missing Value Source: NWS Daily Summary

Daily Weather History Graph

Daily Weather History Graph

Search for Another Location

Airport or City:

Astronomy

Jul. 22, 2019 Rise Set
Actual Time 6:21 AM CDT 8:52 PM CDT
Civil Twilight 5:50 AM CDT 9:23 PM CDT
Nautical Twilight 5:11 AM CDT 10:01 PM CDT
Astronomical Twilight 4:28 AM CDT 10:44 PM CDT
Moon No Moon Rise 11:38 AM CDT (7/22)
Length of Visible Light 15h 33m
Length of Day
14h 31m
Waning Gibbous, 72% of the Moon is Illuminated
Jul 22
Waning Gibbous
Jul 24
Last Quarter
Jul 31
New
Aug 7
First Quarter
Aug 15
Full

Hourly Weather History & Observations

Time (CDT) Temp. Heat Index Dew Point Humidity Pressure Visibility Wind Dir Wind Speed Gust Speed Precip Events Conditions
12:55 AM 70.0 °F - 63.0 °F 78% 30.11 in 10.0 mi NE 5.8 mph - N/A   Clear
1:55 AM 69.1 °F - 64.0 °F 84% 30.13 in 10.0 mi North 6.9 mph - N/A   Clear
2:55 AM 68.0 °F - 63.0 °F 84% 30.13 in 10.0 mi North 6.9 mph - N/A   Clear
3:55 AM 66.9 °F - 63.0 °F 87% 30.14 in 10.0 mi North 9.2 mph - N/A   Mostly Cloudy
4:55 AM 66.0 °F - 61.0 °F 84% 30.15 in 10.0 mi North 5.8 mph - N/A   Clear
5:55 AM 64.9 °F - 60.1 °F 84% 30.17 in 10.0 mi North 8.1 mph - N/A   Clear
6:55 AM 64.9 °F - 61.0 °F 87% 30.19 in 10.0 mi North 6.9 mph - N/A   Clear
7:55 AM 68.0 °F - 61.0 °F 78% 30.21 in 10.0 mi North 9.2 mph - N/A   Clear
8:55 AM 72.0 °F - 61.0 °F 68% 30.22 in 10.0 mi NNE 11.5 mph - N/A   Clear
9:55 AM 75.0 °F - 61.0 °F 62% 30.22 in 10.0 mi NNE 9.2 mph - N/A   Clear
10:55 AM 77.0 °F - 57.9 °F 52% 30.22 in 10.0 mi NNE 16.1 mph 24.2 mph N/A   Clear
11:55 AM 79.0 °F - 60.1 °F 52% 30.23 in 10.0 mi NNE 13.8 mph - N/A   Clear
12:55 PM 81.0 °F 81.3 °F 59.0 °F 47% 30.23 in 10.0 mi North 13.8 mph 23.0 mph N/A   Clear
1:55 PM 81.0 °F 81.3 °F 59.0 °F 47% 30.22 in 10.0 mi NE 13.8 mph 21.9 mph N/A   Clear
2:55 PM 82.0 °F 82.1 °F 59.0 °F 45% 30.21 in 10.0 mi NNE 15.0 mph 24.2 mph N/A   Clear
3:55 PM 82.0 °F 82.0 °F 57.9 °F 44% 30.20 in 10.0 mi NNE 15.0 mph 26.5 mph N/A   Clear
4:55 PM 82.0 °F 81.6 °F 55.9 °F 41% 30.20 in 10.0 mi North 13.8 mph - N/A   Partly Cloudy
5:55 PM 81.0 °F 80.8 °F 55.9 °F 42% 30.19 in 10.0 mi NNE 13.8 mph - N/A   Partly Cloudy
6:55 PM 79.0 °F - 55.9 °F 45% 30.19 in 10.0 mi NNE 15.0 mph - N/A   Clear
7:55 PM 77.0 °F - 55.9 °F 48% 30.19 in 10.0 mi NNE 11.5 mph - N/A   Clear
8:55 PM 73.0 °F - 57.0 °F 57% 30.20 in 10.0 mi NNE 6.9 mph - N/A   Clear
9:55 PM 69.1 °F - 57.9 °F 68% 30.22 in 10.0 mi North 5.8 mph - N/A   Clear
10:55 PM 66.9 °F - 57.9 °F 73% 30.24 in 10.0 mi North 5.8 mph - N/A   Clear
11:55 PM 66.0 °F - 57.0 °F 73% 30.25 in 10.0 mi North 3.5 mph - N/A   Clear